EW8502 Weather Reports


time (UTC)temp
F
wind
direction
speed
knots
gust
knots
rain 1hr
in
rain 24hr
in
rain mn
in
humidity
%
barometer
mb
20260506161526 61 202 0.0 0.9 0.00 0.00 0.00 83 1008.0
20260506160022 61 201 0.0 1.7 0.00 0.00 0.00 82 1008.1
20260506154519 61 184 0.0 8.7 0.00 0.00 0.00 82 1008.2
20260506153030 61 163 0.0 1.7 0.00 0.00 0.00 83 1008.5
20260506151534 60 151 0.0 12.2 0.00 0.00 0.00 83 1008.5
20260506150028 60 161 0.0 1.7 0.00 0.00 0.00 83 1008.2
20260506144528 60 173 0.0 4.3 0.00 0.00 0.00 83 1008.2
20260506143026 61 146 0.0 8.7 0.00 0.00 0.00 82 1008.6
20260506141528 61 174 0.0 3.5 0.00 0.00 0.00 82 1008.5
20260506140028 60 207 0.9 7.0 0.00 0.00 0.00 84 1008.6
20260506134522 60 198 0.9 7.8 0.00 0.00 0.00 84 1008.7
20260506133039 60 186 0.0 8.7 0.00 0.00 0.00 85 1008.7
20260506131525 60 170 0.0 4.3 0.00 0.00 0.00 85 1008.4
20260506130007 59 123 0.0 7.8 0.00 0.00 0.00 84 1008.4
20260506124505 60 174 0.0 5.2 0.00 0.00 0.00 85 1008.3
20260506123005 59 182 0.0 3.5 0.00 0.00 0.00 86 1008.7
20260506121501 59 173 0.0 10.4 0.00 0.00 0.00 86 1008.9
20260506120100 59 173 0.0 3.5 0.00 0.00 0.00 87 1008.7
20260506114604 58 178 0.0 4.3 0.00 0.00 0.00 88 1008.7
20260506113101 58 188 0.9 8.7 0.00 0.00 0.00 89 1008.6
20260506111605 57 183 0.0 8.7 0.00 0.00 0.00 90 1008.8
20260506110054 57 177 0.0 4.3 0.00 0.00 0.00 90 1008.8
20260506104558 57 180 0.0 6.1 0.00 0.00 0.00 90 1008.6
20260506103059 56 165 0.0 7.8 0.00 0.00 0.00 90 1008.6
20260506101552 56 182 0.0 0.9 0.00 0.00 0.00 90 1008.6
20260506100053 56 153 0.0 7.0 0.00 0.00 0.00 90 1008.6
20260506094548 56 167 0.0 6.1 0.00 0.00 0.00 89 1008.7
20260506093046 57 175 0.0 12.2 0.00 0.00 0.00 89 1008.7
20260506091547 57 171 0.0 0.9 0.00 0.00 0.00 89 1008.7
20260506090045 57 161 0.0 0.9 0.00 0.00 0.00 89 1008.8
20260506084544 57 190 0.0 1.7 0.00 0.00 0.00 88 1008.9
20260506083040 57 165 0.0 5.2 0.00 0.00 0.00 88 1009.0
20260506081540 57 174 0.0 9.6 0.00 0.00 0.00 87 1009.0
20260506073038 57 178 0.0 2.6 0.00 0.00 0.00 86 1009.2
20260506071537 57 185 0.0 4.3 0.00 0.00 0.00 86 1009.3
20260506061532 58 117 0.0 7.8 0.00 0.00 0.00 84 1009.2
20260506044522 59 198 0.0 9.6 0.00 0.00 0.00 81 1009.4
20260506043021 60 178 0.9 7.0 0.00 0.00 0.00 81 1009.5
20260506041519 60 184 0.0 4.3 0.00 0.00 0.00 80 1009.6
20260506040033 60 174 0.0 2.6 0.00 0.00 0.00 80 1009.4
20260506034520 60 180 0.0 5.2 0.00 0.00 0.00 80 1009.4
20260506033016 60 175 0.0 1.7 0.00 0.00 0.00 80 1009.4
20260506031516 60 170 0.0 4.3 0.00 0.00 0.00 79 1009.4
20260506030015 61 163 0.0 12.2 0.00 0.00 0.00 79 1009.7
20260506024515 61 159 0.0 4.3 0.00 0.00 0.00 79 1009.6
20260506023023 61 140 0.0 5.2 0.00 0.00 0.00 78 1009.5
20260506021528 61 302 0.0 8.7 0.00 0.00 0.00 77 1009.6
20260506020013 62 188 0.0 10.4 0.00 0.00 0.00 75 1009.6
20260506014513 62 201 0.0 12.2 0.00 0.00 0.00 73 1009.5
20260506013036 63 141 0.0 9.6 0.00 0.00 0.00 71 1009.1
20260506011535 63 221 0.9 8.7 0.00 0.00 0.00 71 1008.9
20260506010046 63 173 0.0 3.5 0.00 0.00 0.00 71 1008.6
20260506004534 63 155 0.0 6.1 0.00 0.00 0.00 71 1008.6
20260506003033 63 165 0.0 10.4 0.00 0.00 0.00 71 1008.5
20260506001532 63 172 0.0 4.3 0.00 0.00 0.00 72 1008.4
20260506000032 63 180 0.0 8.7 0.00 0.00 0.00 71 1008.4
20260505234554 63 196 0.0 8.7 0.00 0.00 0.00 70 1008.1
20260505233037 64 190 0.0 11.3 0.00 0.00 0.00 69 1007.9
20260505231532 64 312 0.0 8.7 0.00 0.00 0.00 69 1007.6
20260505230030 64 191 0.0 7.8 0.00 0.00 0.00 69 1007.4
20260505224533 64 180 0.9 7.0 0.00 0.00 0.00 69 1007.5
20260505223029 64 165 0.9 10.4 0.00 0.00 0.00 68 1007.3
20260505221530 65 186 0.0 7.8 0.00 0.00 0.00 68 1007.2
20260505220027 65 173 0.0 3.5 0.00 0.00 0.00 67 1007.4
20260505214536 66 259 0.0 6.1 0.00 0.00 0.00 65 1007.1
20260505213058 66 184 0.0 8.7 0.00 0.00 0.00 66 1006.9
20260505211547 67 167 0.0 5.2 0.00 0.00 0.00 64 1006.8
20260505210055 67 182 0.0 7.0 0.00 0.00 0.00 65 1006.7
20260505204555 67 142 0.0 7.0 0.00 0.00 0.00 66 1006.8
20260505203051 67 190 0.0 9.6 0.00 0.00 0.00 66 1006.9
20260505201542 68 177 0.0 6.1 0.00 0.00 0.00 65 1007.1
20260505200057 68 165 0.0 1.7 0.00 0.00 0.00 65 1007.1
20260505194546 68 192 0.0 1.7 0.00 0.00 0.00 65 1007.4
20260505193040 67 273 0.0 2.6 0.00 0.00 0.00 66 1007.6
20260505191537 67 281 0.0 5.2 0.00 0.00 0.00 67 1007.7
20260505190038 67 161 0.9 10.4 0.00 0.00 0.00 66 1008.1
20260505184535 67 199 0.0 7.8 0.00 0.00 0.00 66 1008.2
20260505183036 68 163 0.0 1.7 0.00 0.00 0.00 68 1008.2
20260505181636 67 142 0.9 7.8 0.00 0.00 0.00 67 1008.3
20260505180054 68 180 1.7 14.8 0.00 0.00 0.00 66 1008.5
20260505174549 68 151 0.0 6.1 0.00 0.00 0.00 67 1008.5
20260505173033 68 155 0.9 7.8 0.00 0.00 0.00 67 1008.6
20260505171529 69 163 0.0 5.2 0.00 0.00 0.00 65 1008.9
20260505170028 70 178 0.0 4.3 0.00 0.00 0.00 65 1008.7
20260505164526 69 248 0.0 7.0 0.00 0.00 0.00 64 1008.8
20260505163025 69 159 0.9 6.1 0.00 0.00 0.00 64 1009.1